Location: Cedar Brake
(32.2526°N, 97.8459°W)
Time: 16:50:00
(UTC+00:00)

Resurs 01 Rocket - Pass Details

Date: 22 April 2026
Orbit: 626 x 636 km, 97.7° (Epoch: 9 May)

Event Time Altitude Azimuth Distance (km) Brightness Sun altitude
Rises 01:40:26 0° 174° (S) 2,904 4.7 -7.9°
Reaches altitude 10° 01:42:38 10° 177° (S) 1,999 3.9 -8.4°
Maximum altitude 01:46:57 66° 259° (W) 688 2.0 -9.2°
Drops below altitude 10° 01:51:18 10° 342° (NNW) 2,006 4.8 -10.1°
Sets 01:53:30 0° 345° (NNW) 2,916 5.6 -10.5°
